Location: La Chapelle
(48.3135°N, 1.3085°W)
Time: 06:33:18
(UTC+00:00)

Cosmos 1869 Rocket - Pass Details

Date: 03 March 2021
Orbit: 605 x 633 km, 82.5° (Epoch: 11 April)

Event Time Altitude Azimuth Distance (km) Brightness Sun altitude
Rises 19:50:36 0° 184° (S) 2,860 6.9 -20.3°
Reaches altitude 10° 19:52:48 10° 183° (S) 1,964 6.0 -20.6°
Maximum altitude 19:57:09 79° 98° (E) 634 3.4 -21.3°
Drops below altitude 10° 20:01:34 10° 12° (NNE) 1,997 6.2 -22.1°
Sets 20:03:49 0° 11° (N) 2,913 7.1 -22.4°
